| time (UTC) | temp F | wind direction | speed MPH | gust MPH | rain 1hr in | rain 24hr in | rain mn in | humidity % | barometer mb |
| 20260831191539 | 61 | 207 | 4.0 | 6.0 | 0.31 | 1.42 | 0.13 | 96 | 1013.2 |
| 20260831191043 | 61 | 288 | 4.0 | 6.0 | 0.31 | 1.38 | 0.12 | 96 | 1013.2 |
| 20260831190544 | 61 | 292 | 3.0 | 6.0 | 0.28 | 1.38 | 0.11 | 95 | 1013.1 |
| 20260831190028 | 61 | 253 | 4.0 | 6.0 | 0.31 | 1.38 | 0.11 | 95 | 1013.0 |
| 20260831185529 | 61 | 259 | 4.0 | 6.0 | 0.35 | 1.38 | 0.11 | 95 | 1013.0 |
| 20260831185031 | 61 | 256 | 3.0 | 5.0 | 0.35 | 1.34 | 0.10 | 95 | 1013.0 |
| 20260831184537 | 61 | 234 | 3.0 | 5.0 | 0.31 | 1.30 | 0.09 | 95 | 1012.9 |
| 20260831184038 | 61 | 188 | 2.0 | 4.0 | 0.31 | 1.30 | 0.09 | 95 | 1013.0 |
| 20260831183539 | 61 | 204 | 2.0 | 3.0 | 0.31 | 1.26 | 0.08 | 95 | 1012.8 |
| 20260831183040 | 61 | 217 | 2.0 | 4.0 | 0.31 | 1.26 | 0.08 | 95 | 1012.7 |
| 20260831182543 | 62 | 299 | 1.0 | 6.0 | 0.28 | 1.22 | 0.07 | 95 | 1012.6 |
| 20260831182106 | 62 | 285 | 4.0 | 8.0 | 0.24 | 1.18 | 0.06 | 95 | 1012.4 |
| 20260831181544 | 62 | 313 | 5.0 | 8.0 | 0.20 | 1.14 | 0.05 | 95 | 1012.4 |
| 20260831181026 | 62 | 287 | 6.0 | 8.0 | 0.16 | 1.10 | 0.04 | 95 | 1012.4 |
| 20260831180529 | 62 | 311 | 4.0 | 6.0 | 0.12 | 1.06 | 0.03 | 95 | 1012.4 |
| 20260831180034 | 63 | 286 | 3.0 | 4.0 | 0.12 | 1.06 | 0.03 | 95 | 1012.4 |
| 20260831175533 | 62 | 319 | 1.0 | 2.0 | 0.08 | 1.02 | 0.02 | 95 | 1012.4 |
| 20260831175037 | 62 | 101 | 0.0 | 1.0 | 0.04 | 0.98 | 0.01 | 95 | 1012.3 |
| 20260831174601 | 62 | 95 | 0.0 | 2.0 | 0.04 | 0.98 | 0.01 | 95 | 1012.1 |
| 20260831174041 | 62 | 99 | 1.0 | 2.0 | 0.04 | 0.98 | 0.01 | 95 | 1011.8 |
| 20260831173544 | 62 | 197 | 0.0 | 2.0 | 0.00 | 0.94 | 0.00 | 95 | 1011.7 |
| 20260831173048 | 62 | 196 | 0.0 | 3.0 | 0.00 | 0.94 | 0.00 | 95 | 1011.6 |
| 20260831172529 | 62 | 196 | 2.0 | 3.0 | 0.00 | 0.94 | 0.00 | 95 | 1011.6 |
| 20260831172031 | 62 | 141 | 0.0 | 4.0 | 0.00 | 0.94 | 0.00 | 95 | 1011.5 |
| 20260831171552 | 62 | 48 | 2.0 | 6.0 | 0.00 | 0.94 | 0.00 | 95 | 1011.6 |
| 20260831165108 | 61 | 285 | 0.0 | 2.0 | 0.00 | 0.94 | 0.00 | 94 | 1012.3 |
| 20260831164029 | 61 | 25 | 2.0 | 3.0 | 0.00 | 0.94 | 0.00 | 94 | 1012.3 |
| 20260831163530 | 61 | 101 | 1.0 | 5.0 | 0.00 | 0.94 | 0.00 | 94 | 1012.5 |
| 20260831163049 | 61 | 198 | 2.0 | 7.0 | 0.00 | 0.94 | 0.00 | 93 | 1012.4 |
| 20260831162547 | 62 | 179 | 4.0 | 7.0 | 0.00 | 0.94 | 0.00 | 91 | 1012.6 |
| 20260831162028 | 62 | 37 | 2.0 | 8.0 | 0.00 | 0.94 | 0.00 | 93 | 1012.5 |
| 20260831161549 | 61 | 16 | 4.0 | 8.0 | 0.00 | 0.94 | 0.00 | 94 | 1012.4 |
| 20260831161032 | 61 | 184 | 1.0 | 9.0 | 0.00 | 0.94 | 0.00 | 93 | 1012.6 |
| 20260831160553 | 61 | 183 | 5.0 | 9.0 | 0.00 | 0.94 | 0.00 | 93 | 1012.7 |
| 20260831160036 | 61 | 160 | 3.0 | 4.0 | 0.00 | 0.94 | 0.00 | 92 | 1012.6 |
| 20260831155538 | 61 | 66 | 0.0 | 3.0 | 0.00 | 0.94 | 0.00 | 93 | 1012.5 |
| 20260831155044 | 61 | 56 | 1.0 | 3.0 | 0.00 | 0.94 | 0.00 | 93 | 1012.7 |
| 20260831154531 | 60 | 221 | 1.0 | 5.0 | 0.00 | 0.94 | 0.00 | 93 | 1012.6 |
| 20260831154036 | 61 | 232 | 2.0 | 5.0 | 0.00 | 0.94 | 0.00 | 93 | 1012.7 |
| 20260831153601 | 61 | 214 | 1.0 | 3.0 | 0.00 | 0.94 | 0.00 | 93 | 1012.6 |
| 20260831153042 | 60 | 129 | 2.0 | 3.0 | 0.00 | 0.94 | 0.00 | 92 | 1012.3 |
| 20260831152544 | 60 | 233 | 0.0 | 7.0 | 0.00 | 0.94 | 0.00 | 92 | 1012.1 |
| 20260831152109 | 61 | 233 | 2.0 | 11.0 | 0.00 | 0.94 | 0.00 | 91 | 1012.3 |
| 20260831151531 | 62 | 190 | 7.0 | 11.0 | 0.00 | 0.94 | 0.00 | 90 | 1012.1 |
| 20260831151033 | 62 | 15 | 1.0 | 3.0 | 0.00 | 0.94 | 0.00 | 91 | 1012.3 |
| 20260831150536 | 62 | 325 | 1.0 | 4.0 | 0.00 | 0.94 | 0.00 | 92 | 1012.4 |
| 20260831150040 | 61 | 46 | 2.0 | 5.0 | 0.00 | 0.94 | 0.00 | 92 | 1012.4 |
| 20260831145545 | 61 | 50 | 4.0 | 7.0 | 0.00 | 0.94 | 0.00 | 93 | 1012.6 |
| 20260831145027 | 60 | 63 | 2.0 | 7.0 | 0.00 | 0.94 | 0.00 | 94 | 1012.9 |
| 20260831144530 | 60 | 139 | 1.0 | 5.0 | 0.00 | 0.94 | 0.00 | 94 | 1013.0 |
| 20260831144030 | 60 | 191 | 2.0 | 5.0 | 0.00 | 0.94 | 0.00 | 94 | 1013.2 |
| 20260831143610 | 60 | 160 | 3.0 | 6.0 | 0.00 | 0.94 | 0.00 | 94 | 1013.2 |
| 20260831143048 | 60 | 181 | 3.0 | 7.0 | 0.00 | 0.94 | 0.00 | 94 | 1013.0 |
| 20260831142549 | 60 | 153 | 3.0 | 6.0 | 0.00 | 0.94 | 0.00 | 93 | 1013.0 |
| 20260831142050 | 60 | 185 | 2.0 | 5.0 | 0.00 | 0.94 | 0.00 | 93 | 1013.2 |
| 20260831141533 | 60 | 134 | 3.0 | 5.0 | 0.00 | 0.94 | 0.00 | 94 | 1013.3 |
| 20260831141035 | 60 | 145 | 2.0 | 4.0 | 0.00 | 0.94 | 0.00 | 94 | 1013.5 |
| 20260831140534 | 60 | 120 | 2.0 | 4.0 | 0.00 | 0.94 | 0.00 | 94 | 1013.4 |
| 20260831140040 | 60 | 176 | 2.0 | 4.0 | 0.00 | 0.94 | 0.00 | 94 | 1013.5 |
| 20260831135543 | 59 | 166 | 2.0 | 5.0 | 0.00 | 0.94 | 0.00 | 94 | 1013.9 |
| 20260831135044 | 59 | 208 | 3.0 | 6.0 | 0.00 | 0.94 | 0.00 | 94 | 1014.0 |
| 20260831134546 | 59 | 191 | 4.0 | 6.0 | 0.00 | 0.94 | 0.00 | 94 | 1013.8 |
| 20260831134028 | 59 | 161 | 2.0 | 5.0 | 0.00 | 0.94 | 0.00 | 93 | 1013.8 |
| 20260831133531 | 59 | 160 | 3.0 | 6.0 | 0.00 | 0.94 | 0.00 | 93 | 1013.8 |
| 20260831133053 | 60 | 186 | 3.0 | 7.0 | 0.00 | 0.94 | 0.00 | 92 | 1013.6 |
| 20260831132534 | 60 | 127 | 5.0 | 7.0 | 0.00 | 0.94 | 0.00 | 92 | 1013.6 |
| 20260831132037 | 60 | 146 | 5.0 | 7.0 | 0.00 | 0.94 | 0.00 | 92 | 1013.8 |
| 20260831131539 | 60 | 101 | 4.0 | 7.0 | 0.00 | 0.94 | 0.00 | 92 | 1013.8 |
| 20260831131101 | 60 | 103 | 6.0 | 7.0 | 0.00 | 0.94 | 0.00 | 93 | 1014.0 |
| 20260831130543 | 60 | 109 | 3.0 | 5.0 | 0.00 | 0.94 | 0.00 | 93 | 1014.3 |
| 20260831130044 | 59 | 119 | 3.0 | 5.0 | 0.00 | 0.94 | 0.00 | 93 | 1014.3 |
| 20260831125544 | 59 | 171 | 1.0 | 4.0 | 0.00 | 0.94 | 0.00 | 93 | 1014.3 |
| 20260831125025 | 59 | 193 | 2.0 | 6.0 | 0.00 | 0.94 | 0.00 | 93 | 1014.1 |
| 20260831124531 | 59 | 143 | 4.0 | 8.0 | 0.00 | 0.94 | 0.00 | 94 | 1013.9 |
| 20260831124033 | 59 | 131 | 5.0 | 8.0 | 0.00 | 0.94 | 0.00 | 94 | 1013.8 |
| 20260831123536 | 58 | 142 | 4.0 | 6.0 | 0.00 | 0.94 | 0.00 | 94 | 1013.8 |
| 20260831123036 | 58 | 147 | 5.0 | 6.0 | 0.00 | 0.94 | 0.00 | 94 | 1013.4 |
| 20260831122537 | 58 | 175 | 2.0 | 6.0 | 0.00 | 0.94 | 0.00 | 94 | 1013.8 |
| 20260831122037 | 59 | 180 | 3.0 | 8.0 | 0.00 | 0.94 | 0.00 | 94 | 1013.9 |
| 20260831121540 | 59 | 129 | 5.0 | 8.0 | 0.00 | 0.94 | 0.00 | 94 | 1014.0 |
| 20260831121040 | 58 | 115 | 5.0 | 7.0 | 0.00 | 0.94 | 0.00 | 95 | 1013.9 |
| 20260831120526 | 58 | 99 | 4.0 | 6.0 | 0.00 | 0.94 | 0.00 | 95 | 1013.9 |
| 20260831120106 | 58 | 146 | 4.0 | 6.0 | 0.00 | 0.94 | 0.00 | 95 | 1014.0 |
| 20260831115531 | 58 | 117 | 2.0 | 5.0 | 0.00 | 0.94 | 0.00 | 95 | 1014.1 |
| 20260831115032 | 58 | 164 | 2.0 | 5.0 | 0.00 | 0.94 | 0.00 | 96 | 1014.1 |
| 20260831114532 | 57 | 112 | 3.0 | 5.0 | 0.00 | 0.94 | 0.00 | 96 | 1014.0 |
| 20260831114053 | 57 | 144 | 2.0 | 3.0 | 0.00 | 0.94 | 0.00 | 96 | 1013.9 |
| 20260831113557 | 57 | 176 | 2.0 | 5.0 | 0.00 | 0.94 | 0.00 | 96 | 1014.0 |
| 20260831113057 | 57 | 129 | 4.0 | 6.0 | 0.00 | 0.94 | 0.00 | 96 | 1013.8 |
| 20260831112538 | 57 | 105 | 3.0 | 7.0 | 0.00 | 0.94 | 0.00 | 96 | 1014.1 |
| 20260831112038 | 57 | 136 | 5.0 | 7.0 | 0.00 | 0.94 | 0.00 | 96 | 1013.8 |
| 20260831111542 | 57 | 115 | 4.0 | 6.0 | 0.00 | 0.94 | 0.00 | 96 | 1013.8 |
| 20260831111105 | 56 | 130 | 3.0 | 5.0 | 0.00 | 0.94 | 0.00 | 96 | 1014.0 |
| 20260831110604 | 56 | 117 | 3.0 | 6.0 | 0.00 | 0.94 | 0.00 | 96 | 1014.1 |
| 20260831110032 | 56 | 110 | 4.0 | 8.0 | 0.00 | 0.94 | 0.00 | 97 | 1014.0 |
| 20260831105535 | 56 | 120 | 5.0 | 8.0 | 0.00 | 0.94 | 0.00 | 97 | 1014.0 |
| 20260831105039 | 55 | 122 | 4.0 | 5.0 | 0.00 | 0.94 | 0.00 | 96 | 1014.1 |
| 20260831104538 | 55 | 103 | 1.0 | 4.0 | 0.00 | 0.94 | 0.00 | 96 | 1014.0 |
| 20260831104041 | 55 | 124 | 0.0 | 0.0 | 0.00 | 0.94 | 0.00 | 96 | 1014.1 |
| 20260831103541 | 55 | 131 | 0.0 | 0.0 | 0.00 | 0.94 | 0.00 | 97 | 1014.0 |
| 20260831103042 | 55 | 139 | 0.0 | 0.0 | 0.00 | 0.94 | 0.00 | 97 | 1013.9 |
| 20260831102527 | 55 | 147 | 0.0 | 0.0 | 0.00 | 0.94 | 0.00 | 96 | 1013.7 |
| 20260831102032 | 55 | 116 | 0.0 | 0.0 | 0.00 | 0.94 | 0.00 | 96 | 1013.8 |
| 20260831101536 | 55 | 116 | 0.0 | 0.0 | 0.00 | 0.94 | 0.00 | 96 | 1013.9 |
| 20260831101038 | 55 | 105 | 0.0 | 0.0 | 0.00 | 0.94 | 0.00 | 96 | 1013.9 |
| 20260831100539 | 55 | 107 | 0.0 | 0.0 | 0.00 | 0.94 | 0.00 | 96 | 1013.9 |
| 20260831100040 | 55 | 105 | 0.0 | 1.0 | 0.00 | 0.94 | 0.00 | 96 | 1013.8 |
| 20260831095542 | 55 | 108 | 0.0 | 1.0 | 0.00 | 0.94 | 0.00 | 96 | 1013.8 |
| 20260831095045 | 55 | 105 | 0.0 | 0.0 | 0.00 | 0.94 | 0.00 | 96 | 1013.7 |
| 20260831094527 | 55 | 120 | 0.0 | 0.0 | 0.00 | 0.94 | 0.00 | 96 | 1013.7 |
| 20260831094029 | 55 | 134 | 0.0 | 0.0 | 0.00 | 0.94 | 0.00 | 96 | 1013.6 |
| 20260831093533 | 55 | 143 | 0.0 | 2.0 | 0.00 | 0.94 | 0.00 | 96 | 1013.6 |
| 20260831093030 | 55 | 153 | 1.0 | 4.0 | 0.00 | 0.94 | 0.00 | 96 | 1013.5 |
| 20260831092555 | 55 | 131 | 2.0 | 4.0 | 0.00 | 0.94 | 0.00 | 96 | 1013.4 |
| 20260831092057 | 55 | 148 | 1.0 | 6.0 | 0.00 | 0.94 | 0.00 | 96 | 1013.4 |
| 20260831091554 | 55 | 155 | 3.0 | 6.0 | 0.00 | 0.94 | 0.00 | 96 | 1013.0 |
| 20260831091039 | 55 | 173 | 3.0 | 7.0 | 0.00 | 0.94 | 0.00 | 96 | 1012.9 |
| 20260831090600 | 55 | 188 | 4.0 | 8.0 | 0.00 | 0.94 | 0.00 | 96 | 1012.8 |
| 20260831090042 | 55 | 193 | 4.0 | 8.0 | 0.00 | 0.94 | 0.00 | 96 | 1012.5 |
| 20260831085545 | 55 | 160 | 3.0 | 7.0 | 0.00 | 0.94 | 0.00 | 96 | 1012.2 |
| 20260831085028 | 55 | 192 | 4.0 | 6.0 | 0.00 | 0.94 | 0.00 | 96 | 1012.3 |
| 20260831084550 | 55 | 215 | 3.0 | 8.0 | 0.00 | 0.94 | 0.00 | 96 | 1012.4 |
| 20260831084032 | 55 | 117 | 4.0 | 8.0 | 0.00 | 0.94 | 0.00 | 95 | 1012.5 |
| 20260831083552 | 55 | 179 | 3.0 | 5.0 | 0.00 | 0.94 | 0.00 | 95 | 1012.4 |
| 20260831083110 | 55 | 193 | 1.0 | 5.0 | 0.00 | 0.94 | 0.00 | 95 | 1012.6 |
| 20260831082529 | 55 | 130 | 3.0 | 5.0 | 0.00 | 0.94 | 0.00 | 94 | 1012.6 |
| 20260831082032 | 55 | 139 | 3.0 | 4.0 | 0.00 | 0.94 | 0.00 | 94 | 1012.8 |
| 20260831081533 | 56 | 158 | 0.0 | 3.0 | 0.00 | 0.94 | 0.00 | 94 | 1013.0 |
| 20260831081035 | 56 | 158 | 1.0 | 5.0 | 0.00 | 0.94 | 0.00 | 93 | 1012.9 |
| 20260831080540 | 56 | 151 | 3.0 | 4.0 | 0.00 | 0.94 | 0.00 | 93 | 1012.8 |
| 20260831075544 | 57 | 124 | 2.0 | 4.0 | 0.00 | 0.94 | 0.00 | 92 | 1013.1 |
| 20260831075044 | 57 | 79 | 1.0 | 3.0 | 0.00 | 0.94 | 0.00 | 91 | 1013.2 |
| 20260831074602 | 57 | 120 | 2.0 | 3.0 | 0.00 | 0.94 | 0.00 | 91 | 1013.2 |
| 20260831074026 | 58 | 166 | 1.0 | 5.0 | 0.00 | 0.94 | 0.00 | 90 | 1013.4 |
| 20260831073536 | 58 | 130 | 1.0 | 3.0 | 0.00 | 0.94 | 0.00 | 89 | 1013.4 |
| 20260831073058 | 59 | 70 | 2.0 | 5.0 | 0.00 | 0.94 | 0.00 | 89 | 1013.6 |
| 20260831072540 | 59 | 94 | 1.0 | 6.0 | 0.00 | 0.94 | 0.00 | 88 | 1013.8 |
| 20260831072043 | 59 | 127 | 3.0 | 8.0 | 0.00 | 0.94 | 0.00 | 88 | 1013.8 |
| 20260831071604 | 59 | 95 | 4.0 | 8.0 | 0.00 | 0.94 | 0.00 | 88 | 1013.9 |
| 20260831071104 | 59 | 37 | 5.0 | 9.0 | 0.00 | 0.94 | 0.00 | 89 | 1014.1 |
| 20260831070525 | 59 | 46 | 5.0 | 9.0 | 0.00 | 0.94 | 0.00 | 89 | 1014.0 |
| 20260831070033 | 58 | 63 | 4.0 | 9.0 | 0.00 | 0.94 | 0.00 | 89 | 1014.0 |
| 20260831065535 | 58 | 75 | 5.0 | 9.0 | 0.00 | 0.94 | 0.00 | 89 | 1014.0 |
| 20260831065037 | 58 | 110 | 4.0 | 5.0 | 0.00 | 0.94 | 0.00 | 89 | 1014.1 |
| 20260831064537 | 59 | 42 | 3.0 | 8.0 | 0.00 | 0.94 | 0.00 | 89 | 1014.3 |
| 20260831064041 | 59 | 78 | 5.0 | 8.0 | 0.00 | 0.94 | 0.00 | 89 | 1014.3 |
| 20260831063543 | 58 | 82 | 4.0 | 7.0 | 0.00 | 0.94 | 0.00 | 89 | 1014.5 |
| 20260831063047 | 58 | 83 | 2.0 | 6.0 | 0.00 | 0.94 | 0.00 | 90 | 1014.6 |
| 20260831062529 | 58 | 70 | 3.0 | 7.0 | 0.00 | 0.94 | 0.00 | 90 | 1014.7 |
| 20260831062037 | 58 | 14 | 4.0 | 7.0 | 0.00 | 0.94 | 0.00 | 90 | 1014.6 |
| 20260831061539 | 58 | 124 | 3.0 | 5.0 | 0.00 | 0.94 | 0.00 | 90 | 1014.5 |
| 20260831061043 | 58 | 60 | 4.0 | 5.0 | 0.00 | 0.94 | 0.00 | 90 | 1014.5 |
| 20260831060543 | 58 | 18 | 0.0 | 4.0 | 0.00 | 0.94 | 0.00 | 89 | 1014.4 |
| 20260831060045 | 59 | 126 | 3.0 | 5.0 | 0.00 | 0.94 | 0.00 | 89 | 1014.4 |
| 20260831055545 | 59 | 65 | 3.0 | 6.0 | 0.00 | 0.94 | 0.00 | 89 | 1014.6 |
| 20260831055047 | 59 | 88 | 2.0 | 6.0 | 0.00 | 0.94 | 0.00 | 89 | 1014.7 |
| 20260831054529 | 59 | 75 | 1.0 | 7.0 | 0.00 | 0.94 | 0.00 | 90 | 1015.0 |
| 20260831054031 | 58 | 25 | 3.0 | 6.0 | 0.00 | 0.94 | 0.00 | 90 | 1015.1 |
| 20260831053533 | 58 | 14 | 4.0 | 6.0 | 0.00 | 0.94 | 0.00 | 90 | 1015.1 |
| 20260831053035 | 58 | 359 | 3.0 | 4.0 | 0.00 | 0.94 | 0.00 | 90 | 1015.0 |
| 20260831052535 | 58 | 8 | 2.0 | 9.0 | 0.00 | 0.94 | 0.00 | 89 | 1014.2 |
| 20260831052037 | 59 | 113 | 5.0 | 9.0 | 0.00 | 0.94 | 0.00 | 88 | 1014.1 |
| 20260831051601 | 59 | 123 | 6.0 | 11.0 | 0.00 | 0.94 | 0.00 | 88 | 1014.1 |
| 20260831051038 | 59 | 110 | 7.0 | 12.0 | 0.00 | 0.94 | 0.00 | 87 | 1014.4 |
| 20260831050547 | 59 | 161 | 6.0 | 13.0 | 0.00 | 0.94 | 0.00 | 87 | 1014.5 |
| 20260831050032 | 59 | 89 | 7.0 | 13.0 | 0.00 | 0.94 | 0.00 | 88 | 1014.6 |
| 20260831045535 | 59 | 96 | 5.0 | 10.0 | 0.00 | 0.94 | 0.00 | 88 | 1014.5 |
| 20260831045038 | 59 | 43 | 4.0 | 11.0 | 0.00 | 0.94 | 0.00 | 89 | 1014.8 |
| 20260831044540 | 59 | 18 | 6.0 | 12.0 | 0.00 | 0.94 | 0.00 | 89 | 1015.2 |
| 20260831044046 | 58 | 102 | 8.0 | 11.0 | 0.00 | 0.94 | 0.00 | 90 | 1014.7 |
| 20260831043528 | 58 | 39 | 4.0 | 8.0 | 0.00 | 0.94 | 0.00 | 91 | 1015.9 |
| 20260831043031 | 58 | 332 | 3.0 | 5.0 | 0.00 | 0.94 | 0.00 | 92 | 1016.4 |
| 20260831042531 | 57 | 45 | 3.0 | 4.0 | 0.00 | 0.94 | 0.00 | 92 | 1015.8 |
| 20260831042035 | 57 | 9 | 1.0 | 4.0 | 0.00 | 0.94 | 0.00 | 91 | 1015.4 |
| 20260831041537 | 58 | 150 | 2.0 | 4.0 | 0.00 | 0.94 | 0.00 | 91 | 1015.4 |
| 20260831041038 | 58 | 187 | 1.0 | 9.0 | 0.00 | 0.94 | 0.00 | 90 | 1015.6 |
| 20260831040540 | 58 | 158 | 3.0 | 12.0 | 0.00 | 0.94 | 0.00 | 89 | 1015.4 |
| 20260831040026 | 59 | 124 | 8.0 | 14.0 | 0.00 | 0.94 | 0.00 | 88 | 1014.9 |
| 20260831035530 | 59 | 56 | 7.0 | 14.0 | 0.00 | 0.94 | 0.00 | 88 | 1015.1 |
| 20260831035033 | 59 | 88 | 7.0 | 14.0 | 0.00 | 0.94 | 0.00 | 88 | 1015.0 |
| 20260831034537 | 59 | 114 | 7.0 | 13.0 | 0.00 | 0.94 | 0.00 | 89 | 1015.2 |
| 20260831034040 | 59 | 74 | 8.0 | 13.0 | 0.00 | 0.94 | 0.00 | 89 | 1015.4 |
| 20260831033540 | 59 | 84 | 5.0 | 11.0 | 0.00 | 0.94 | 0.00 | 89 | 1015.5 |
| 20260831033043 | 59 | 105 | 8.0 | 11.0 | 0.00 | 0.94 | 0.00 | 89 | 1015.5 |
| 20260831032525 | 59 | 90 | 7.0 | 13.0 | 0.00 | 0.94 | 0.00 | 89 | 1015.4 |
| 20260831032051 | 59 | 33 | 6.0 | 20.0 | 0.00 | 0.94 | 0.00 | 89 | 1015.4 |
| 20260831031550 | 59 | 92 | 10.0 | 20.0 | 0.00 | 0.94 | 0.00 | 90 | 1015.3 |
| 20260831031030 | 58 | 85 | 10.0 | 15.0 | 0.00 | 0.94 | 0.00 | 90 | 1015.3 |
| 20260831030532 | 58 | 106 | 10.0 | 18.0 | 0.00 | 0.94 | 0.24 | 91 | 1015.5 |
| 20260831030033 | 58 | 92 | 11.0 | 18.0 | 0.00 | 0.94 | 0.24 | 92 | 1015.5 |
| 20260831025533 | 58 | 100 | 12.0 | 17.0 | 0.00 | 0.94 | 0.24 | 92 | 1015.5 |
| 20260831025035 | 58 | 103 | 10.0 | 16.0 | 0.00 | 0.94 | 0.24 | 94 | 1016.2 |
| 20260831024542 | 57 | 68 | 5.0 | 11.0 | 0.00 | 0.94 | 0.24 | 95 | 1016.5 |
| 20260831024044 | 57 | 69 | 7.0 | 16.0 | 0.00 | 0.94 | 0.24 | 96 | 1016.4 |
| 20260831023528 | 57 | 117 | 7.0 | 16.0 | 0.00 | 0.94 | 0.24 | 96 | 1016.1 |
| 20260831023050 | 57 | 40 | 8.0 | 13.0 | 0.00 | 0.94 | 0.24 | 96 | 1016.2 |
| 20260831022531 | 57 | 112 | 7.0 | 15.0 | 0.00 | 0.94 | 0.24 | 96 | 1016.2 |
| 20260831021525 | 57 | 129 | 9.0 | 12.0 | 0.00 | 0.94 | 0.24 | 96 | 1016.0 |
| 20260831021109 | 57 | 112 | 327.0 | 327.0 | 0.00 | 0.00 | 0.24 | 96 | 1016.5 |
| 20260831020031 | 57 | 140 | 8.0 | 12.0 | 0.00 | 0.94 | 0.24 | 96 | 1016.9 |
| 20260831015551 | 57 | 111 | 8.0 | 16.0 | 0.00 | 0.94 | 0.24 | 97 | 1016.9 |
| 20260831015031 | 57 | 106 | 9.0 | 16.0 | 0.04 | 0.94 | 0.24 | 96 | 1016.7 |
| 20260831014535 | 57 | 119 | 9.0 | 15.0 | 0.04 | 0.94 | 0.24 | 97 | 1016.9 |
| 20260831014039 | 57 | 129 | 9.0 | 15.0 | 0.04 | 0.94 | 0.24 | 97 | 1016.8 |
| 20260831013540 | 57 | 142 | 10.0 | 15.0 | 0.04 | 0.94 | 0.24 | 97 | 1016.7 |
| 20260831013043 | 57 | 119 | 11.0 | 15.0 | 0.08 | 0.94 | 0.24 | 96 | 1016.6 |
| 20260831012528 | 57 | 128 | 8.0 | 14.0 | 0.12 | 0.94 | 0.24 | 96 | 1017.0 |
| 20260831012030 | 57 | 153 | 7.0 | 16.0 | 0.12 | 0.94 | 0.24 | 96 | 1017.0 |
| 20260831011534 | 57 | 120 | 11.0 | 16.0 | 0.20 | 0.94 | 0.24 | 96 | 1017.1 |
| 20260831011057 | 57 | 150 | 9.0 | 12.0 | 0.28 | 0.94 | 0.24 | 96 | 1017.4 |
| 20260831010535 | 57 | 141 | 6.0 | 11.0 | 0.39 | 0.94 | 0.24 | 96 | 1017.6 |
| 20260831010041 | 57 | 101 | 5.0 | 11.0 | 0.39 | 0.94 | 0.24 | 96 | 1017.7 |
| 20260831005544 | 57 | 131 | 7.0 | 11.0 | 0.39 | 0.94 | 0.24 | 96 | 1017.8 |
| 20260831005026 | 57 | 132 | 8.0 | 11.0 | 0.35 | 0.91 | 0.23 | 96 | 1017.9 |
| 20260831004530 | 57 | 118 | 7.0 | 9.0 | 0.35 | 0.91 | 0.23 | 96 | 1018.5 |
| 20260831004033 | 58 | 99 | 3.0 | 11.0 | 0.35 | 0.91 | 0.23 | 95 | 1019.0 |
| 20260831003537 | 57 | 162 | 5.0 | 13.0 | 0.35 | 0.91 | 0.23 | 96 | 1019.1 |
| 20260831003040 | 57 | 195 | 5.0 | 13.0 | 0.31 | 0.87 | 0.22 | 95 | 1019.1 |
| 20260831002540 | 57 | 217 | 5.0 | 14.0 | 0.28 | 0.83 | 0.21 | 95 | 1018.4 |
| 20260831002101 | 57 | 169 | 8.0 | 18.0 | 0.28 | 0.83 | 0.21 | 95 | 1018.4 |
| 20260831001528 | 57 | 165 | 9.0 | 21.0 | 0.20 | 0.75 | 0.19 | 95 | 1018.4 |
| 20260831001031 | 57 | 176 | 12.0 | 21.0 | 0.12 | 0.67 | 0.17 | 94 | 1017.9 |
| 20260831000551 | 57 | 190 | 12.0 | 18.0 | 0.00 | 0.55 | 0.14 | 94 | 1017.6 |
| 20260831000032 | 57 | 217 | 11.0 | 17.0 | 0.00 | 0.55 | 0.14 | 94 | 1016.6 |
| 20260830235533 | 57 | 181 | 5.0 | 12.0 | 0.00 | 0.55 | 0.14 | 94 | 1015.1 |
| 20260830235037 | 57 | 152 | 8.0 | 14.0 | 0.00 | 0.55 | 0.14 | 93 | 1014.7 |
| 20260830234541 | 57 | 165 | 9.0 | 19.0 | 0.00 | 0.55 | 0.14 | 92 | 1014.6 |
| 20260830234102 | 58 | 131 | 14.0 | 19.0 | 0.00 | 0.55 | 0.14 | 92 | 1014.4 |
| 20260830233542 | 58 | 110 | 13.0 | 17.0 | 0.04 | 0.55 | 0.14 | 92 | 1015.0 |
| 20260830233045 | 58 | 121 | 7.0 | 13.0 | 0.04 | 0.55 | 0.14 | 92 | 1015.7 |
| 20260830232544 | 58 | 91 | 9.0 | 15.0 | 0.08 | 0.55 | 0.14 | 92 | 1015.5 |
| 20260830232046 | 58 | 130 | 11.0 | 17.0 | 0.12 | 0.55 | 0.14 | 92 | 1015.2 |
| 20260830231548 | 58 | 105 | 13.0 | 26.0 | 0.16 | 0.55 | 0.14 | 92 | 1014.9 |
| 20260830231028 | 58 | 121 | 18.0 | 26.0 | 0.16 | 0.55 | 0.14 | 92 | 1014.8 |
| 20260830230529 | 58 | 105 | 13.0 | 23.0 | 0.16 | 0.67 | 0.14 | 93 | 1014.8 |
| 20260830230033 | 58 | 101 | 12.0 | 23.0 | 0.16 | 0.67 | 0.14 | 94 | 1014.8 |
| 20260830225541 | 57 | 91 | 12.0 | 21.0 | 0.16 | 0.67 | 0.14 | 94 | 1014.6 |
| 20260830225043 | 57 | 115 | 12.0 | 21.0 | 0.16 | 0.67 | 0.14 | 94 | 1014.4 |
| 20260830224528 | 57 | 101 | 14.0 | 20.0 | 0.20 | 0.67 | 0.14 | 95 | 1014.5 |
| 20260830224031 | 57 | 122 | 13.0 | 18.0 | 0.24 | 0.67 | 0.14 | 95 | 1014.6 |
| 20260830223534 | 57 | 128 | 10.0 | 13.0 | 0.20 | 0.63 | 0.13 | 95 | 1015.0 |
| 20260830223037 | 57 | 133 | 6.0 | 10.0 | 0.20 | 0.63 | 0.13 | 94 | 1015.5 |
| 20260830222541 | 58 | 176 | 5.0 | 9.0 | 0.20 | 0.59 | 0.12 | 94 | 1016.1 |
| 20260830222042 | 58 | 129 | 5.0 | 9.0 | 0.20 | 0.55 | 0.11 | 94 | 1016.1 |
| 20260830221544 | 58 | 104 | 4.0 | 10.0 | 0.16 | 0.51 | 0.10 | 94 | 1016.2 |
| 20260830221028 | 58 | 132 | 7.0 | 14.0 | 0.20 | 0.51 | 0.10 | 93 | 1015.8 |
| 20260830220551 | 58 | 123 | 11.0 | 14.0 | 0.20 | 0.51 | 0.10 | 93 | 1015.1 |
| 20260830220054 | 58 | 113 | 11.0 | 16.0 | 0.20 | 0.51 | 0.10 | 93 | 1015.1 |
| 20260830215533 | 58 | 74 | 11.0 | 16.0 | 0.24 | 0.51 | 0.10 | 93 | 1015.1 |
| 20260830215035 | 58 | 123 | 11.0 | 16.0 | 0.24 | 0.51 | 0.10 | 93 | 1014.6 |
| 20260830214542 | 58 | 88 | 11.0 | 16.0 | 0.20 | 0.47 | 0.09 | 94 | 1015.0 |
| 20260830214044 | 58 | 98 | 11.0 | 15.0 | 0.16 | 0.43 | 0.08 | 93 | 1014.9 |
| 20260830213546 | 58 | 124 | 9.0 | 14.0 | 0.16 | 0.43 | 0.08 | 93 | 1015.4 |
| 20260830213049 | 58 | 113 | 5.0 | 9.0 | 0.16 | 0.43 | 0.08 | 94 | 1015.4 |
| 20260830212529 | 58 | 177 | 6.0 | 12.0 | 0.12 | 0.39 | 0.07 | 93 | 1015.3 |
| 20260830212052 | 58 | 118 | 6.0 | 15.0 | 0.08 | 0.35 | 0.06 | 94 | 1015.8 |
| 20260830211534 | 58 | 208 | 10.0 | 17.0 | 0.08 | 0.35 | 0.06 | 94 | 1015.6 |
| 20260830211035 | 58 | 191 | 7.0 | 19.0 | 0.04 | 0.31 | 0.05 | 94 | 1014.4 |
| 20260830210535 | 58 | 124 | 11.0 | 19.0 | 0.04 | 0.55 | 0.05 | 94 | 1013.9 |
| 20260830210040 | 58 | 117 | 10.0 | 19.0 | 0.04 | 0.55 | 0.05 | 94 | 1014.2 |
| 20260830205541 | 58 | 119 | 12.0 | 18.0 | 0.04 | 0.51 | 0.04 | 94 | 1014.1 |
| 20260830205024 | 59 | 134 | 12.0 | 17.0 | 0.08 | 0.51 | 0.04 | 94 | 1014.6 |
| 20260830204529 | 59 | 150 | 9.0 | 12.0 | 0.08 | 0.51 | 0.04 | 94 | 1015.1 |
| 20260830204035 | 59 | 79 | 7.0 | 11.0 | 0.12 | 0.51 | 0.04 | 94 | 1015.3 |
| 20260830203536 | 59 | 123 | 6.0 | 10.0 | 0.12 | 0.51 | 0.04 | 95 | 1015.4 |
| 20260830203039 | 59 | 51 | 8.0 | 14.0 | 0.12 | 0.51 | 0.04 | 94 | 1015.1 |
| 20260830202541 | 59 | 131 | 10.0 | 16.0 | 0.12 | 0.51 | 0.04 | 95 | 1014.6 |
| 20260830202044 | 59 | 120 | 10.0 | 13.0 | 0.12 | 0.51 | 0.04 | 95 | 1014.5 |
| 20260830201527 | 59 | 136 | 7.0 | 11.0 | 0.12 | 0.51 | 0.04 | 95 | 1014.9 |
| 20260830201028 | 59 | 156 | 6.0 | 12.0 | 0.12 | 0.51 | 0.04 | 95 | 1014.4 |
| 20260830200531 | 59 | 141 | 9.0 | 12.0 | 0.12 | 0.55 | 0.04 | 95 | 1014.5 |
| 20260830195120 | 59 | 175 | 6.0 | 10.0 | 0.08 | 0.47 | 0.02 | 94 | 1015.2 |
| 20260830194615 | 59 | 117 | 4.0 | 11.0 | 0.08 | 0.47 | 0.02 | 94 | 1015.9 |
| 20260830193535 | 59 | 141 | 10.0 | 14.0 | 0.04 | 0.43 | 0.01 | 95 | 1014.9 |
| 20260830193057 | 60 | 147 | 7.0 | 13.0 | 0.04 | 0.43 | 0.01 | 95 | 1014.9 |
| 20260830192538 | 60 | 181 | 7.0 | 15.0 | 0.04 | 0.43 | 0.01 | 95 | 1014.7 |
| 20260830192039 | 60 | 115 | 11.0 | 15.0 | 0.04 | 0.43 | 0.01 | 95 | 1014.6 |
| 20260830191604 | 60 | 143 | 8.0 | 17.0 | 0.04 | 0.43 | 0.01 | 95 | 1014.6 |